TimeEST,TemperatureF,Dew PointF,Humidity,Sea Level PressureIn,VisibilityMPH,Wind Direction,Wind SpeedMPH,Gust SpeedMPH,PrecipitationIn,Events,Conditions,WindDirDegrees,DateUTC
12:53 AM,50.0,39.0,66,30.23,10.0,SSE,5.8,-,N/A,,Clear,150,2013-11-06 05:53:00
1:53 AM,50.0,39.9,68,30.21,10.0,SSE,4.6,-,N/A,,Clear,150,2013-11-06 06:53:00
2:53 AM,50.0,39.9,68,30.20,10.0,South,4.6,-,N/A,,Clear,170,2013-11-06 07:53:00
3:53 AM,52.0,42.1,69,30.18,10.0,Calm,Calm,-,N/A,,Overcast,0,2013-11-06 08:53:00
4:53 AM,51.1,41.0,68,30.17,10.0,SSE,5.8,-,N/A,,Partly Cloudy,150,2013-11-06 09:53:00
5:53 AM,51.1,41.0,68,30.17,10.0,South,5.8,-,N/A,,Overcast,170,2013-11-06 10:53:00
6:53 AM,51.1,41.0,68,30.14,10.0,SSE,9.2,-,N/A,,Overcast,150,2013-11-06 11:53:00
7:53 AM,54.0,43.0,66,30.14,10.0,South,9.2,-,N/A,,Overcast,170,2013-11-06 12:53:00
8:53 AM,57.0,46.0,67,30.14,10.0,South,9.2,-,N/A,,Overcast,180,2013-11-06 13:53:00
9:35 AM,60.8,48.2,63,30.14,10.0,South,9.2,-,N/A,,Overcast,170,2013-11-06 14:35:00
9:53 AM,61.0,48.9,64,30.13,10.0,South,9.2,-,N/A,,Overcast,170,2013-11-06 14:53:00
10:53 AM,64.9,53.1,65,30.12,10.0,South,13.8,25.3,N/A,,Overcast,190,2013-11-06 15:53:00
11:34 AM,68.0,55.4,64,30.10,10.0,SSW,18.4,31.1,N/A,,Overcast,200,2013-11-06 16:34:00
11:53 AM,68.0,55.0,63,30.09,10.0,South,19.6,33.4,N/A,,Overcast,190,2013-11-06 16:53:00
12:53 PM,70.0,55.9,61,30.06,10.0,South,18.4,29.9,N/A,,Overcast,190,2013-11-06 17:53:00
1:53 PM,70.0,55.0,59,30.03,10.0,SSW,21.9,26.5,N/A,,Overcast,200,2013-11-06 18:53:00
2:53 PM,69.1,55.9,63,30.01,10.0,SSW,19.6,26.5,N/A,,Overcast,200,2013-11-06 19:53:00
3:53 PM,62.1,60.1,93,30.03,5.0,West,8.1,-,0.03,Rain,Light Rain,270,2013-11-06 20:53:00
4:24 PM,62.6,60.8,94,30.03,2.5,SW,11.5,17.3,0.04,Rain,Rain,230,2013-11-06 21:24:00
4:34 PM,62.6,60.8,94,30.02,4.0,SSW,16.1,21.9,0.05,Rain,Light Rain,200,2013-11-06 21:34:00
4:53 PM,62.1,59.0,90,30.02,9.0,SSW,10.4,-,0.06,Rain,Light Rain,210,2013-11-06 21:53:00
5:53 PM,61.0,59.0,93,30.01,10.0,South,5.8,-,0.00,Rain,Light Rain,190,2013-11-06 22:53:00
6:53 PM,61.0,59.0,93,30.02,10.0,SW,4.6,-,0.00,Rain,Light Rain,220,2013-11-06 23:53:00
7:02 PM,60.8,59.0,94,30.03,8.0,SW,5.8,-,0.01,Rain,Light Rain,230,2013-11-07 00:02:00
7:36 PM,60.8,59.0,94,30.03,7.0,SW,13.8,18.4,0.05,,Overcast,230,2013-11-07 00:36:00
7:53 PM,61.0,59.0,93,30.02,6.0,SW,11.5,-,0.05,Rain,Light Rain,230,2013-11-07 00:53:00
8:53 PM,60.1,59.0,96,30.00,10.0,SW,8.1,-,0.01,,Overcast,230,2013-11-07 01:53:00
9:22 PM,60.8,59.0,94,30.01,6.0,Variable,4.6,-,0.02,Rain,Light Rain,0,2013-11-07 02:22:00
9:35 PM,60.8,57.2,88,30.01,7.0,West,6.9,-,0.03,Rain,Light Rain,260,2013-11-07 02:35:00
9:42 PM,60.8,57.2,88,30.01,7.0,West,6.9,-,0.03,Rain,Light Rain,260,2013-11-07 02:42:00
9:53 PM,59.0,57.9,96,30.01,6.0,WNW,10.4,16.1,0.04,Rain,Light Rain,290,2013-11-07 02:53:00
10:07 PM,57.2,55.4,94,30.03,7.0,WNW,6.9,18.4,0.01,Rain,Light Rain,290,2013-11-07 03:07:00
10:22 PM,57.2,55.4,94,30.04,6.0,West,8.1,16.1,0.03,Rain,Light Rain,280,2013-11-07 03:22:00
10:42 PM,57.2,55.4,94,30.03,6.0,WNW,8.1,-,0.05,Rain,Light Rain,290,2013-11-07 03:42:00
10:53 PM,57.0,55.0,93,30.02,7.0,WNW,8.1,16.1,0.06,Rain,Light Rain,290,2013-11-07 03:53:00
11:09 PM,55.4,55.4,100,30.02,8.0,WNW,11.5,16.1,0.01,Rain,Light Rain,300,2013-11-07 04:09:00
11:53 PM,50.0,48.0,93,30.03,10.0,NW,8.1,17.3,0.03,Rain,Light Rain,320,2013-11-07 04:53:00